Regional Weather Roundup
Issued by NWS

Home | Current Version | Previous Version | Text Only | Print | Product List | Glossary On
Versions: 1 2 3 4 5 6 7 8 9 10 11 12 13 14 15 16 17 18 19 20 21 22 23 24 25 26 27 28 29 30 31 32 33 34 35 36 37 38 39 40 41 42 43 44 45 46 47 48 49 50
000
ASUS43 KOAX 241402
RWRNE

WEATHER ROUNDUP FOR NEBRASKA
NATIONAL WEATHER SERVICE OMAHA NE
900 AM CDT WED AUG 24 2016

NOTES: SATELLITE DATA IS BEING USED TO AUGMENT CLOUD COVER ABOVE
       12000 FEET.
       "FAIR" INDICATES FEW OR NO CLOUDS BELOW 12,000 FEET WITH NO
       SIGNIFICANT WEATHER AND/OR OBSTRUCTIONS TO VISIBILITY.

  * THESE STATIONS DO NOT REPORT WEATHER SUCH AS RAIN...SNOW OR FOG.

NEZ001>004-019>022-054>056-241500-
NEBRASKA PANHANDLE

CITY           SKY/WX    TMP DP  RH WIND       PRES   REMARKS
SCOTTSBLUFF    CLOUDY    59  45  59 E8        30.20R
ALLIANCE       CLOUDY    53  47  79 W6        30.20R
CHADRON        CLOUDY    56  39  53 W3        30.20R
KIMBALL        CLOUDY    62  45  52 NE6       30.21R
SIDNEY         CLOUDY    61  44  53 E7        30.22R
$$

NEZ057>060-069>072-079>082-241500-
SOUTHWEST NEBRASKA

CITY           SKY/WX    TMP DP  RH WIND       PRES   REMARKS
NORTH PLATTE   CLOUDY    60  51  72 N3        30.11R
IMPERIAL       CLOUDY    62  45  53 N8        30.13S
LEXINGTON      CLOUDY    59  53  80 NW6       30.08R
MCCOOK         CLOUDY    61  50  67 NE3       30.07F
OGALLALA       CLOUDY    63  42  45 N3        30.17R
$$

NEZ005>010-023>029-035>040-094-241500-
NORTH CENTRAL NEBRASKA

CITY           SKY/WX    TMP DP  RH WIND       PRES   REMARKS
VALENTINE      CLOUDY    58  42  55 NW5       30.12R
AINSWORTH      CLOUDY    56  47  71 NW8       30.10R
BROKEN BOW     CLOUDY    58  51  78 CALM      30.09R
O`NEILL        CLOUDY    60  49  67 CALM      30.06R
ORD            CLOUDY    58  51  78 CALM      30.05R
THEDFORD       CLOUDY    60  45  58 W6        30.12R
$$

NEZ041-046>049-061>064-073>077-083>087-241500-
SOUTH CENTRAL NEBRASKA

CITY           SKY/WX    TMP DP  RH WIND       PRES   REMARKS
GRAND ISLAND   MOSUNNY   68  55  63 N10       30.05R
AURORA         MOSUNNY   67  62  84 N8        30.02F
HASTINGS       PTSUNNY   65  57  75 N13       30.03R
HEBRON         MOSUNNY   70  66  87 NE7       29.98R
HOLDREGE       CLOUDY    63  51  66 N6        30.06R
KEARNEY *      PTSUNNY   64  52  63 N12       30.04R
YORK           MOSUNNY   68  61  77 N12       30.01F
$$

NEZ011>018-030>034-042>045-241500-
NORTHEAST NEBRASKA

CITY           SKY/WX    TMP DP  RH WIND       PRES   REMARKS
NORFOLK        CLOUDY    63  53  70 W6        30.02R
ALBION         CLOUDY    59  52  78 NW5       30.05R
BLAIR          CLOUDY    69  63  80 NW9       29.98R
FREMONT        MOSUNNY   69  62  78 NW8       30.00R
TEKAMAH        PTSUNNY   69  61  75 NW7       29.97R
WAYNE          PTSUNNY   62  57  83 CALM      30.01S
$$

NEZ050>053-065>068-078-088>093-241500-
SOUTHEAST NEBRASKA

CITY           SKY/WX    TMP DP  RH WIND       PRES   REMARKS
LINCOLN        PTSUNNY   74  66  76 N10       29.98S
OMAHA EPPLEY   CLOUDY    73  65  75 NW10        N/A
BEATRICE       CLOUDY    70  65  82 NE6       29.98R
FALLS CITY     MOSUNNY   69  66  90 CALM      29.96R
NEBRASKA CITY  PTSUNNY   68  68 100 N3        29.98R
PLATTSMOUTH    PTSUNNY   70  67  89 NW3       29.97S
$$

NEZ044-045-051>053-067-241500-
OMAHA AREA

CITY           SKY/WX    TMP DP  RH WIND       PRES   REMARKS
OMAHA EPPLEY   CLOUDY    73  65  75 NW10        N/A
BLAIR          CLOUDY    69  63  80 NW9       29.98R
FREMONT        MOSUNNY   69  62  78 NW8       30.00R
MILLARD        PTSUNNY   72  64  75 NW10      29.96S
OFFUTT AFB     CLOUDY    71  67  88 NW2       29.96R
PLATTSMOUTH    PTSUNNY   70  67  89 NW3       29.97S
WAHOO          FAIR      70  61  73 NW9       29.99R
$$




USA.gov is the U.S. government's official web portal to all federal, state and local government web resources and services.